EW5254 Weather Reports


Display with metric or nautical units.
time (UTC)temp
F
wind
direction
speed
MPH
gust
MPH
rain 1hr
in
rain 24hr
in
rain mn
in
humidity
%
barometer
mb
20260502163032 54 54 4.0 12.0 0.00 0.06 0.00 56 1016.6
20260502161519 53 90 8.0 13.0 0.00 0.06 0.00 56 1016.6
20260502151559 51 106 3.0 10.0 0.00 0.06 0.00 57 1016.4
20260502123032 41 58 5.0 10.0 0.00 0.38 0.00 90 1014.3
20260502121526 41 55 5.0 9.0 0.00 0.38 0.00 90 1014.3
20260502114518 41 60 6.0 11.0 0.00 0.42 0.00 92 1013.7
20260502113015 41 67 4.0 11.0 0.00 0.42 0.00 93 1013.6
20260502111512 42 55 5.0 11.0 0.00 0.42 0.00 94 1013.7
20260502110012 42 51 8.0 14.0 0.00 0.42 0.00 94 1013.4
20260502104515 42 51 6.0 11.0 0.00 0.42 0.00 94 1013.5
20260502103005 43 71 5.0 11.0 0.00 0.42 0.00 93 1013.3
20260502101503 43 49 6.0 11.0 0.00 0.42 0.00 93 1013.1
20260502080105 45 77 5.0 14.0 0.00 0.42 0.00 96 1012.5
20260502070100 44 36 8.0 17.0 0.00 0.42 0.00 96 1012.4
20260502064549 45 56 10.0 17.0 0.00 0.42 0.00 96 1012.2
20260502063040 45 65 11.0 17.0 0.00 0.42 0.00 96 1012.1
20260502061538 45 51 8.0 17.0 0.00 0.42 0.00 96 1012.0
20260502060037 45 40 10.0 20.0 0.00 0.42 0.00 96 1011.8
20260502054536 45 49 11.0 23.0 0.00 0.42 0.00 96 1011.5
20260502053032 45 50 9.0 23.0 0.00 0.42 0.00 96 1011.5
20260502051535 45 45 9.0 21.0 0.00 0.42 0.00 96 1011.2
20260502050025 45 60 11.0 26.0 0.00 0.42 0.00 95 1011.0
20260502044523 46 55 13.0 22.0 0.00 0.42 0.42 95 1011.0
20260502043018 47 44 10.0 20.0 0.00 0.42 0.42 95 1010.7
20260502041516 47 49 12.0 19.0 0.00 0.42 0.42 95 1010.6
20260502040012 48 67 9.0 17.0 0.00 0.42 0.42 95 1010.2
20260502034509 48 50 11.0 22.0 0.00 0.42 0.42 95 1009.9
20260502033006 48 55 9.0 18.0 0.00 0.42 0.42 95 1009.6
20260502031503 49 62 10.0 20.0 0.00 0.42 0.42 95 1009.2
20260502024559 50 52 10.0 19.0 0.00 0.42 0.42 95 1008.6
20260502023055 50 37 11.0 21.0 0.00 0.42 0.42 94 1008.1
20260502021552 50 33 11.0 21.0 0.00 0.42 0.42 94 1007.7
20260502020050 51 69 11.0 20.0 0.00 0.42 0.42 94 1007.4
20260502014547 51 49 10.0 20.0 0.00 0.42 0.42 93 1007.1
20260502013045 52 80 9.0 20.0 0.00 0.42 0.42 93 1006.8
20260502011543 53 55 9.0 18.0 0.00 0.42 0.42 92 1006.5
20260502010040 53 62 11.0 19.0 0.00 0.42 0.42 89 1006.1
20260502004538 54 36 8.0 22.0 0.00 0.42 0.42 87 1005.9
20260502003036 55 78 7.0 15.0 0.00 0.42 0.42 84 1005.6
20260502001544 55 47 10.0 19.0 0.00 0.42 0.42 84 1005.2
20260502000032 56 69 8.0 15.0 0.00 0.42 0.42 82 1005.0
20260501234535 58 76 11.0 17.0 0.00 0.42 0.42 79 1004.6
20260501233028 60 81 10.0 16.0 0.00 0.42 0.42 75 1004.4
20260501231527 59 78 10.0 15.0 0.00 0.42 0.42 76 1004.1
20260501230026 59 59 5.0 12.0 0.00 0.42 0.42 76 1004.3
20260501224529 60 67 6.0 14.0 0.00 0.42 0.42 75 1003.9
20260501223025 58 38 8.0 13.0 0.00 0.42 0.42 78 1003.7
20260501221525 59 37 8.0 16.0 0.01 0.42 0.42 77 1003.4
20260501220024 60 70 9.0 15.0 0.01 0.42 0.42 73 1003.3
20260501214537 60 62 8.0 14.0 0.01 0.42 0.42 73 1003.3
20260501213022 62 22 5.0 17.0 0.01 0.42 0.42 71 1003.4
20260501211520 61 35 10.0 14.0 0.00 0.41 0.41 72 1003.5
20260501210021 60 46 4.0 13.0 0.00 0.41 0.41 73 1003.5
20260501204517 60 49 5.0 15.0 0.00 0.41 0.41 72 1003.6
20260501203017 60 32 8.0 16.0 0.00 0.41 0.41 73 1003.6
20260501201516 60 346 6.0 15.0 0.00 0.41 0.41 74 1003.6
20260501200012 59 88 3.0 10.0 0.00 0.41 0.41 74 1003.5
20260501194514 58 36 4.0 9.0 0.00 0.41 0.41 76 1003.7
20260501193010 56 65 1.0 4.0 0.00 0.41 0.41 80 1003.8
20260501191510 55 38 3.0 9.0 0.02 0.41 0.41 87 1003.7
20260501190021 54 96 6.0 9.0 0.05 0.41 0.41 92 1003.7
20260501184512 53 107 5.0 10.0 0.05 0.41 0.41 94 1003.8
20260501183008 50 71 3.0 12.0 0.05 0.41 0.41 91 1004.1
20260501181518 49 5 3.0 13.0 0.02 0.38 0.38 89 1004.1
20260501180006 51 355 6.0 19.0 0.00 0.36 0.36 83 1004.0
20260501174502 56 46 5.0 12.0 0.00 0.36 0.36 83 1004.0
20260501173003 56 69 6.0 10.0 0.00 0.36 0.36 83 1003.8
20260501171500 56 88 5.0 12.0 0.00 0.36 0.36 85 1003.7